Location: Amsterdam
(30.7274°N, 84.4357°W)
Time: 19:51:57
(UTC+00:00)

Altair - Pass Details

Date: 13 August 2024
Orbit: 1501 x 1682 km, 47.2° (Epoch: 07 September)

Event Time Altitude Azimuth Distance (km) Brightness Sun altitude
Rises 02:03:09 0° 294° (WNW) 4,677 11.6 -20.5°
Reaches altitude 10° 02:07:12 10° 279° (W) 3,672 10.4 -21.2°
Maximum altitude 02:13:25 20° 235° (SW) 2,909 9.2 -22.4°
Drops below altitude 10° 02:19:37 10° 192° (SSW) 3,640 9.2 -23.5°
Enters shadow 02:21:14 - 184° (S) 4,007 9.4 -23.7°
Sets 02:23:39 0° 176° (S) 4,625 - -24.2°
